DW3733 Luzzi (cosenza) IT current weather conditions

sailwx.info

Wind from 135 at 4 knots gusting 7

Air temperature 23.3° C
Dewpoint 15.6° C

Last reported at 2019-Sep-20 09:08 UTC.
Time now 2019-Sep-20 09:38 UTC

Location: N 39°27' E 016°16'.
View on Google Maps.

See reports from other nearby stations

  
Tides and Currents Weather Stations Pressure Air Temp Water Temp Dewpoint Dewpoint Depression Visibility Wind Speed Wind Dir Waves Ship Positions
date/time (UTC)wind fromknots sea level pressurealtimeterstation pressurevisibilityair tempwater tempwave heightnotes
2019-Sep-20 09:08 135 4 gusting 7 23.3
2019-Sep-20 09:03 050 7 gusting 18 22.8
2019-Sep-20 08:58 043 8 gusting 18 23.3
2019-Sep-20 08:53 053 5 gusting 11 22.8
2019-Sep-20 08:48 045 6 gusting 13 22.8
2019-Sep-20 08:43 045 6 gusting 13 22.8
2019-Sep-20 08:38 084 5 gusting 12 22.8
2019-Sep-20 08:33 087 6 gusting 11 22.2
2019-Sep-20 08:28 050 7 gusting 12 22.2
2019-Sep-20 08:23 090 8 gusting 13 22.2
2019-Sep-20 08:18 085 6 gusting 14 22.2
2019-Sep-20 08:13 049 3 gusting 6 22.2
2019-Sep-20 08:08 045 4 gusting 6 22.2
2019-Sep-20 08:03 036 4 gusting 11 21.7
2019-Sep-20 07:58 045 6 gusting 13 21.7
2019-Sep-20 07:53 090 6 gusting 13 21.7
2019-Sep-20 07:48 005 5 gusting 12 21.7
2019-Sep-20 07:43 045 6 gusting 13 21.7
2019-Sep-20 07:38 049 5 gusting 8 21.7
2019-Sep-20 07:33 346 4 gusting 7 21.7
2019-Sep-20 07:28 040 2 gusting 7 21.1
2019-Sep-20 07:23 358 2 gusting 7 20.6
2019-Sep-20 07:18 240 2 gusting 11 20.6
2019-Sep-20 07:13 178 2 gusting 6 19.4
2019-Sep-20 07:08 090 2 gusting 4 19.4
2019-Sep-20 07:03 345 0 gusting 5 19.4
2019-Sep-20 06:58 193 4 gusting 8 18.9
2019-Sep-20 06:53 195 0 gusting 2 18.9
2019-Sep-20 06:48 221 0 gusting 2 18.3
2019-Sep-20 06:43 270 0 gusting 2 18.3
2019-Sep-20 06:38 189 0 gusting 1 17.8
2019-Sep-20 06:33 229 0 gusting 1 17.2
2019-Sep-20 06:28 139 17.2
2019-Sep-20 06:23 225 0 gusting 1 16.7
2019-Sep-20 06:18 225 16.7
2019-Sep-20 06:13 139 16.1
2019-Sep-20 06:08 090 16.1
2019-Sep-20 06:03 220 15.6
2019-Sep-20 05:58 225 15.6
2019-Sep-20 05:53 232 15.6
2019-Sep-20 05:48 225 15.6
2019-Sep-20 05:43 315 15.6
2019-Sep-20 05:38 225 15.0
2019-Sep-20 05:33 15.0
2019-Sep-20 05:28 356 15.0
2019-Sep-20 05:23 225 15.0
2019-Sep-20 05:18 221 15.0
2019-Sep-20 05:13 135 15.0
2019-Sep-20 05:08 135 15.0
2019-Sep-20 05:03 309 15.0
2019-Sep-20 04:58 225 15.0
2019-Sep-20 04:53 135 15.0
2019-Sep-20 04:48 135 15.0
2019-Sep-20 04:43 225 15.0
2019-Sep-20 04:38 311 15.0
2019-Sep-20 04:33 270 15.0
2019-Sep-20 04:28 135 15.0
2019-Sep-20 04:23 315 15.0
2019-Sep-20 04:18 315 15.0
2019-Sep-20 04:13 270 15.0
2019-Sep-20 04:08 090 15.0
2019-Sep-20 04:03 096 15.0
2019-Sep-20 03:58 180 15.0
2019-Sep-20 03:53 180 15.0
2019-Sep-20 03:48 141 15.6
2019-Sep-20 03:43 274 15.6
2019-Sep-20 03:38 270 15.0
2019-Sep-20 03:33 319 15.0
2019-Sep-20 03:28 090 0 gusting 1 15.6
2019-Sep-20 03:23 315 15.6
2019-Sep-20 03:18 270 15.6
2019-Sep-20 03:13 180 15.0
2019-Sep-20 03:08 180 15.0
2019-Sep-20 03:03 176 0 gusting 2 15.0
2019-Sep-20 02:58 090 0 gusting 2 15.6
2019-Sep-20 02:53 225 15.6
2019-Sep-20 02:48 220 0 gusting 1 15.6
2019-Sep-20 02:43 315 15.6
2019-Sep-20 02:38 220 0 gusting 1 15.6
2019-Sep-20 02:33 090 0 gusting 1 15.6
2019-Sep-20 02:28 135 0 gusting 1 15.6
2019-Sep-20 02:23 045 0 gusting 1 15.6
2019-Sep-20 02:18 045 0 gusting 0 15.6
2019-Sep-20 02:13 15.6
2019-Sep-20 02:08 090 0 gusting 1 15.6
2019-Sep-20 02:03 090 0 gusting 1 15.6
2019-Sep-20 01:58 135 0 gusting 0 15.6
2019-Sep-20 01:53 090 15.6
2019-Sep-20 01:48 225 16.1
2019-Sep-20 01:43 270 16.1
2019-Sep-20 01:38 270 16.1
2019-Sep-20 01:33 090 16.1
2019-Sep-20 01:28 090 0 gusting 1 16.1
2019-Sep-20 01:23 180 16.1
2019-Sep-20 01:18 135 0 gusting 1 16.1
2019-Sep-20 01:13 090 0 gusting 0 16.1
2019-Sep-20 01:08 090 16.1
2019-Sep-20 01:03 090 0 gusting 1 16.1
2019-Sep-20 00:58 131 0 gusting 1 16.1
2019-Sep-20 00:53 090 16.1
2019-Sep-20 00:48 096 0 gusting 1 16.1
2019-Sep-20 00:43 180 16.7
2019-Sep-20 00:38 180 16.7
2019-Sep-20 00:33 225 16.7
2019-Sep-20 00:28 270 16.7
2019-Sep-20 00:23 322 0 gusting 1 16.7
2019-Sep-20 00:18 225 16.7
2019-Sep-20 00:13 090 16.1
2019-Sep-20 00:08 090 16.1
2019-Sep-20 00:03 049 0 gusting 1 16.1
2019-Sep-19 23:58 090 0 gusting 2 16.1
2019-Sep-19 23:53 056 0 gusting 2 16.1
2019-Sep-19 23:48 135 0 gusting 2 16.1
2019-Sep-19 23:43 043 0 gusting 1 16.7
2019-Sep-19 23:38 222 0 gusting 1 16.7
2019-Sep-19 23:33 090 0 gusting 0 16.7
2019-Sep-19 23:28 225 16.7
2019-Sep-19 23:23 225 16.7
2019-Sep-19 23:18 221 0 gusting 1 16.7
2019-Sep-19 23:13 090 0 gusting 1 16.7
2019-Sep-19 23:08 225 0 gusting 0 16.7
2019-Sep-19 23:03 254 16.7
2019-Sep-19 22:58 225 16.7
2019-Sep-19 22:53 225 16.7
2019-Sep-19 22:48 225 16.7
2019-Sep-19 22:43 225 16.7
2019-Sep-19 22:38 225 16.7
2019-Sep-19 22:33 135 0 gusting 2 17.2
2019-Sep-19 22:28 135 17.2
2019-Sep-19 22:23 139 17.2
2019-Sep-19 22:18 219 0 gusting 1 17.2
2019-Sep-19 22:13 141 17.2
2019-Sep-19 22:08 180 0 gusting 1 17.2
2019-Sep-19 22:03 141 17.2
2019-Sep-19 21:58 131 17.8
2019-Sep-19 21:53 192 17.8
2019-Sep-19 21:48 225 17.8
2019-Sep-19 21:43 225 17.8
2019-Sep-19 21:38 090 0 gusting 2 17.8
2019-Sep-19 21:33 135 0 gusting 1 17.8
2019-Sep-19 21:28 225 17.8
2019-Sep-19 21:23 225 0 gusting 1 17.8
2019-Sep-19 21:18 096 0 gusting 1 18.3
2019-Sep-19 21:13 225 0 gusting 1 18.3
2019-Sep-19 21:08 225 18.3
2019-Sep-19 21:03 222 0 gusting 2 18.3
2019-Sep-19 20:58 222 0 gusting 1 18.3
2019-Sep-19 20:53 214 18.3
2019-Sep-19 20:48 094 0 gusting 0 18.3
2019-Sep-19 20:43 224 0 gusting 1 18.3
2019-Sep-19 20:38 180 18.3
2019-Sep-19 20:33 180 18.3
2019-Sep-19 20:28 180 18.3
2019-Sep-19 20:23 225 18.9
2019-Sep-19 20:18 225 0 gusting 0 18.9
2019-Sep-19 20:13 003 0 gusting 0 18.3
2019-Sep-19 20:08 225 18.3
2019-Sep-19 20:03 184 0 gusting 1 18.3
2019-Sep-19 19:58 225 0 gusting 1 18.3
2019-Sep-19 19:53 315 18.3
2019-Sep-19 19:48 320 0 gusting 2 18.3
2019-Sep-19 19:43 093 0 gusting 1 18.3
2019-Sep-19 19:38 315 18.3
2019-Sep-19 19:33 318 0 gusting 2 18.9
2019-Sep-19 19:28 135 0 gusting 2 18.9
2019-Sep-19 19:23 006 18.9
2019-Sep-19 19:18 045 18.9
2019-Sep-19 19:13 051 0 gusting 1 18.9
2019-Sep-19 19:08 045 18.9
2019-Sep-19 19:03 036 0 gusting 1 18.9
2019-Sep-19 18:58 225 0 gusting 1 19.4
2019-Sep-19 18:53 045 19.4
2019-Sep-19 18:48 045 19.4
2019-Sep-19 18:43 045 0 gusting 0 19.4
2019-Sep-19 18:38 045 0 gusting 1 19.4
2019-Sep-19 18:33 045 19.4
2019-Sep-19 18:28 045 0 gusting 1 19.4
2019-Sep-19 18:23 026 20.0
2019-Sep-19 18:18 20.0
2019-Sep-19 18:13 090 1 gusting 2 20.0
2019-Sep-19 18:08 009 0 gusting 1 20.0
2019-Sep-19 18:03 050 0 gusting 1 20.6
2019-Sep-19 17:58 221 0 gusting 2 20.6
2019-Sep-19 17:53 159 1 gusting 2 20.6
2019-Sep-19 17:48 135 0 gusting 1 20.6
2019-Sep-19 17:43 135 0 gusting 2 20.6
2019-Sep-19 17:38 156 0 gusting 1 21.1
2019-Sep-19 17:33 045 0 gusting 0 21.1
2019-Sep-19 17:28 009 0 gusting 2 21.1
2019-Sep-19 17:23 227 0 gusting 2 21.7
2019-Sep-19 17:18 267 0 gusting 2 21.7
2019-Sep-19 17:13 279 0 gusting 1 21.7
2019-Sep-19 17:08 090 21.7
2019-Sep-19 17:03 081 0 gusting 2 22.2
2019-Sep-19 16:58 090 0 gusting 2 22.8
2019-Sep-19 16:53 011 0 gusting 1 22.8
2019-Sep-19 16:48 135 0 gusting 2 22.8
2019-Sep-19 16:43 358 0 gusting 2 22.8
2019-Sep-19 16:38 004 0 gusting 2 22.8
2019-Sep-19 16:33 045 1 gusting 4 23.3
2019-Sep-19 16:28 086 2 gusting 4 23.3
2019-Sep-19 16:23 337 23.3
2019-Sep-19 16:18 075 0 gusting 1 23.3
2019-Sep-19 16:13 214 0 gusting 2 23.3
2019-Sep-19 16:08 308 0 gusting 2 23.3
2019-Sep-19 16:03 045 1 gusting 2 23.3
2019-Sep-19 15:58 270 0 gusting 1 23.3
2019-Sep-19 15:53 184 0 gusting 1 23.3
2019-Sep-19 15:48 225 0 gusting 2 22.8
2019-Sep-19 15:43 250 1 gusting 2 22.8
2019-Sep-19 15:38 225 0 gusting 6 22.8
2019-Sep-19 15:33 186 1 gusting 6 22.8
2019-Sep-19 15:28 184 2 gusting 8 22.8
2019-Sep-19 15:23 225 4 gusting 8 22.8
2019-Sep-19 15:18 143 5 gusting 8 22.8
2019-Sep-19 15:13 229 4 gusting 8 22.8
2019-Sep-19 15:08 185 3 gusting 8 22.8
2019-Sep-19 15:03 245 4 gusting 6 22.2
2019-Sep-19 14:58 202 2 gusting 6 22.2
2019-Sep-19 14:53 246 3 gusting 6 22.2
2019-Sep-19 14:48 218 4 gusting 6 22.2
2019-Sep-19 14:43 180 2 gusting 6 22.2
2019-Sep-19 14:38 222 5 gusting 11 21.7
2019-Sep-19 14:33 315 4 gusting 7 21.7
2019-Sep-19 14:28 180 3 gusting 6 21.7
2019-Sep-19 14:23 250 4 gusting 7 21.7
2019-Sep-19 14:18 225 3 gusting 8 21.1
2019-Sep-19 14:13 310 3 gusting 6 21.1
2019-Sep-19 14:08 135 4 gusting 6 21.1
2019-Sep-19 14:03 135 3 gusting 6 20.6
2019-Sep-19 13:58 267 3 gusting 5 20.6
2019-Sep-19 13:53 155 1 gusting 7 20.6
2019-Sep-19 13:48 309 2 gusting 4 20.6
2019-Sep-19 13:43 264 0 gusting 2 20.6
2019-Sep-19 13:38 090 1 gusting 4 20.6
2019-Sep-19 13:33 087 2 gusting 4 21.1
2019-Sep-19 13:28 041 0 gusting 1 21.1
2019-Sep-19 13:23 003 0 gusting 2 21.1
2019-Sep-19 13:18 096 2 gusting 5 21.1
2019-Sep-19 13:13 261 2 gusting 6 21.7
2019-Sep-19 13:08 086 5 gusting 8 21.7
2019-Sep-19 13:03 093 2 gusting 5 21.7
2019-Sep-19 12:58 045 4 gusting 5 21.7
2019-Sep-19 12:53 214 1 gusting 5 22.8
2019-Sep-19 12:48 220 1 gusting 5 24.4
2019-Sep-19 12:43 322 1 gusting 2 26.7
2019-Sep-19 12:38 318 1 gusting 2 27.2
2019-Sep-19 12:33 186 27.2
2019-Sep-19 12:28 036 1 gusting 4 27.8
2019-Sep-19 12:23 315 2 gusting 13 27.8
2019-Sep-19 12:18 315 2 gusting 6 28.3
2019-Sep-19 12:13 351 2 gusting 6 28.9
2019-Sep-19 12:08 005 2 gusting 8 29.4
2019-Sep-19 12:03 181 2 gusting 8 29.4
2019-Sep-19 11:58 273 1 gusting 6 29.4
2019-Sep-19 11:53 225 4 gusting 11 29.4
2019-Sep-19 11:48 185 6 gusting 11 29.4
2019-Sep-19 11:43 221 5 gusting 8 30.0
2019-Sep-19 11:38 246 4 gusting 10 30.6
2019-Sep-19 11:33 264 5 gusting 11 30.6
2019-Sep-19 11:28 184 2 gusting 6 31.1
2019-Sep-19 11:23 232 3 gusting 8 31.7
2019-Sep-19 11:18 180 3 gusting 10 31.7
2019-Sep-19 11:13 245 4 gusting 10 31.7
2019-Sep-19 11:08 225 3 gusting 10 31.7
2019-Sep-19 11:03 224 2 gusting 7 31.7
2019-Sep-19 10:58 356 0 gusting 4 31.7
2019-Sep-19 10:53 258 1 gusting 6 31.7
2019-Sep-19 10:48 225 2 gusting 4 31.7
2019-Sep-19 10:43 076 1 gusting 2 31.1
2019-Sep-19 10:38 003 1 gusting 2 31.1
2019-Sep-19 10:33 300 0 gusting 4 31.1
2019-Sep-19 10:28 184 2 gusting 5 31.1
2019-Sep-19 10:23 279 0 gusting 1 30.6
2019-Sep-19 10:18 147 1 gusting 2 30.6
2019-Sep-19 10:13 039 0 gusting 2 30.0
2019-Sep-19 10:08 144 0 gusting 2 30.0
2019-Sep-19 10:03 181 1 gusting 2 30.0
2019-Sep-19 09:58 225 0 gusting 2 30.6
2019-Sep-19 09:53 210 0 gusting 2 30.6
2019-Sep-19 09:48 356 30.6
2019-Sep-19 09:43 196 1 gusting 2 30.0
2019-Sep-19 09:38 319 0 gusting 2 29.4
2019-Sep-19 09:33 315 0 gusting 2 29.4
2019-Sep-19 09:28 180 0 gusting 2 29.4
2019-Sep-19 09:23 180 0 gusting 2 29.4
2019-Sep-19 09:18 180 0 gusting 2 28.9
2019-Sep-19 09:13 225 1 gusting 2 28.9
2019-Sep-19 09:08 228 0 gusting 2 28.3
2019-Sep-19 09:03 095 0 gusting 2 28.3
2019-Sep-19 08:58 261 0 gusting 1 28.3
2019-Sep-19 08:53 140 0 gusting 1 27.8
2019-Sep-19 08:48 180 0 gusting 1 27.8
2019-Sep-19 08:43 186 0 gusting 2 27.2
2019-Sep-19 08:38 204 1 gusting 2 27.2
2019-Sep-19 08:33 171 0 gusting 2 26.7
2019-Sep-19 08:28 090 0 gusting 2 26.7
2019-Sep-19 08:23 342 26.1
2019-Sep-19 08:18 225 0 gusting 2 25.6
2019-Sep-19 08:13 225 0 gusting 1 25.6
2019-Sep-19 08:08 319 0 gusting 2 25.0
2019-Sep-19 08:03 054 1 gusting 2 24.4
2019-Sep-19 07:58 188 1 gusting 5 24.4
2019-Sep-19 07:53 259 0 gusting 2 23.9
2019-Sep-19 07:48 189 2 gusting 2 23.9
2019-Sep-19 07:43 225 1 gusting 4 23.3
2019-Sep-19 07:38 225 0 gusting 2 23.3
2019-Sep-19 07:33 268 0 gusting 5 22.8
2019-Sep-19 07:28 210 0 gusting 1 22.8
2019-Sep-19 07:23 237 22.2
2019-Sep-19 07:18 184 0 gusting 1 22.2
2019-Sep-19 07:13 175 0 gusting 1 22.2
2019-Sep-19 07:08 176 0 gusting 0 21.7
2019-Sep-19 07:03 184 0 gusting 2 21.7
2019-Sep-19 06:58 290 21.1
2019-Sep-19 06:53 225 20.6
2019-Sep-19 06:48 225 20.0
2019-Sep-19 06:43 225 0 gusting 1 20.0
2019-Sep-19 06:38 225 20.0
2019-Sep-19 06:33 309 0 gusting 1 19.4
2019-Sep-19 06:28 267 0 gusting 0 19.4
2019-Sep-19 06:23 265 18.9
2019-Sep-19 06:18 225 0 gusting 1 18.3
2019-Sep-19 06:13 205 0 gusting 1 17.8
2019-Sep-19 06:08 225 0 gusting 2 17.8
2019-Sep-19 06:03 228 0 gusting 1 17.8
2019-Sep-19 05:58 354 0 gusting 2 17.8
2019-Sep-19 05:53 255 17.2
2019-Sep-19 05:48 090 17.2
2019-Sep-19 05:38 225 16.7
2019-Sep-19 05:33 225 16.1
2019-Sep-19 05:28 225 0 gusting 1 16.1
2019-Sep-19 05:23 225 0 gusting 1 16.7
2019-Sep-19 05:18 315 0 gusting 1 16.7
2019-Sep-19 05:13 315 0 gusting 0 16.7
2019-Sep-19 05:08 225 0 gusting 0 16.1
2019-Sep-19 05:03 311 0 gusting 0 16.1
2019-Sep-19 04:58 225 16.1
2019-Sep-19 04:53 225 15.6
2019-Sep-19 04:48 231 15.6
2019-Sep-19 04:43 144 0 gusting 1 15.6
2019-Sep-19 04:38 090 0 gusting 1 15.6
2019-Sep-19 04:33 254 0 gusting 0 15.6
2019-Sep-19 04:28 090 0 gusting 1 15.6
2019-Sep-19 04:23 225 15.6
2019-Sep-19 04:18 006 15.6
2019-Sep-19 04:13 090 15.6
2019-Sep-19 04:08 090 0 gusting 2 15.6
2019-Sep-19 04:03 090 0 gusting 2 15.6
2019-Sep-19 03:58 090 0 gusting 2 15.6
2019-Sep-19 03:53 090 15.6
2019-Sep-19 03:48 094 0 gusting 1 15.6
2019-Sep-19 03:43 225 15.6
2019-Sep-19 03:38 273 0 gusting 0 15.6
2019-Sep-19 03:33 171 0 gusting 2 15.6
2019-Sep-19 03:28 090 15.6
2019-Sep-19 03:23 092 1 gusting 2 15.6
2019-Sep-19 03:18 094 1 gusting 2 16.1
2019-Sep-19 03:13 135 0 gusting 1 16.7
2019-Sep-19 03:08 220 16.7
2019-Sep-19 03:03 090 0 gusting 1 16.7
2019-Sep-19 02:58 270 16.7
2019-Sep-19 02:53 225 16.7
2019-Sep-19 02:48 225 16.7
2019-Sep-19 02:43 090 0 gusting 1 16.7
2019-Sep-19 02:38 135 1 gusting 2 17.8
2019-Sep-19 02:33 356 0 gusting 1 17.8
2019-Sep-19 02:28 285 0 gusting 1 17.8
2019-Sep-19 02:23 270 17.8
2019-Sep-19 02:18 099 0 gusting 0 17.2
2019-Sep-19 02:13 354 0 gusting 0 17.2
2019-Sep-19 02:08 045 0 gusting 2 17.2
2019-Sep-19 02:03 090 0 gusting 2 17.2
2019-Sep-19 01:58 090 0 gusting 1 17.2
2019-Sep-19 01:53 090 17.2
2019-Sep-19 01:48 090 17.2
2019-Sep-19 01:43 090 0 gusting 1 17.2
2019-Sep-19 01:38 090 0 gusting 0 17.8
2019-Sep-19 01:33 090 17.8
2019-Sep-19 01:28 090 17.8
2019-Sep-19 01:23 090 17.8
2019-Sep-19 01:18 090 0 gusting 1 17.8
2019-Sep-19 01:13 177 0 gusting 1 17.8
2019-Sep-19 01:08 221 17.8
2019-Sep-19 01:03 093 0 gusting 1 17.8
2019-Sep-19 00:58 090 1 gusting 2 17.8
2019-Sep-19 00:53 357 17.8
2019-Sep-19 00:48 17.8
2019-Sep-19 00:43 320 1 gusting 2 17.8
2019-Sep-19 00:38 135 0 gusting 1 18.3
2019-Sep-19 00:33 090 0 gusting 1 18.3
2019-Sep-19 00:28 267 0 gusting 0 18.3
2019-Sep-19 00:23 318 0 gusting 2 18.9
2019-Sep-19 00:18 090 18.3
2019-Sep-19 00:13 086 0 gusting 1 18.3
2019-Sep-19 00:08 094 0 gusting 1 18.3
2019-Sep-19 00:03 135 1 gusting 2 18.9
2019-Sep-18 23:58 090 0 gusting 2 18.9
2019-Sep-18 23:53 083 0 gusting 1 18.9
2019-Sep-18 23:48 135 0 gusting 0 18.9
2019-Sep-18 23:43 229 18.9
2019-Sep-18 23:38 275 0 gusting 2 18.9
2019-Sep-18 23:33 094 1 gusting 2 18.9
2019-Sep-18 23:28 315 0 gusting 1 18.9
2019-Sep-18 23:23 039 0 gusting 2 18.9
2019-Sep-18 23:18 090 18.9
2019-Sep-18 23:13 137 0 gusting 2 18.9
2019-Sep-18 23:08 131 0 gusting 2 19.4
2019-Sep-18 23:03 184 19.4
2019-Sep-18 22:58 045 0 gusting 1 19.4
2019-Sep-18 22:53 135 0 gusting 0 19.4
2019-Sep-18 22:48 225 19.4
2019-Sep-18 22:43 170 0 gusting 1 19.4
2019-Sep-18 22:38 320 0 gusting 1 19.4
2019-Sep-18 22:33 045 0 gusting 1 20.0
2019-Sep-18 22:28 266 0 gusting 2 20.0
2019-Sep-18 22:23 090 1 gusting 2 20.0
2019-Sep-18 22:18 180 0 gusting 1 20.0
2019-Sep-18 22:13 009 0 gusting 1 20.0
2019-Sep-18 22:08 318 0 gusting 1 20.0
2019-Sep-18 22:03 090 0 gusting 2 20.0
2019-Sep-18 21:58 090 0 gusting 1 20.6
2019-Sep-18 21:53 090 0 gusting 2 20.6
2019-Sep-18 21:48 135 1 gusting 4 20.6
2019-Sep-18 21:43 359 1 gusting 2 20.6
2019-Sep-18 21:38 128 2 gusting 4 20.0
2019-Sep-18 21:33 094 2 gusting 4 20.6
2019-Sep-18 21:28 090 1 gusting 2 20.6
2019-Sep-18 21:23 090 1 gusting 2 21.7
2019-Sep-18 21:18 045 0 gusting 2 21.7
2019-Sep-18 21:13 264 1 gusting 2 22.2
2019-Sep-18 21:08 229 1 gusting 2 22.2
2019-Sep-18 21:03 225 0 gusting 2 21.7
2019-Sep-18 20:58 225 1 gusting 2 21.7
2019-Sep-18 20:53 225 0 gusting 2 21.7
2019-Sep-18 20:48 096 0 gusting 2 22.2
2019-Sep-18 20:43 124 0 gusting 1 22.2
2019-Sep-18 20:38 231 22.8
2019-Sep-18 20:33 209 1 gusting 6 22.8
2019-Sep-18 20:28 245 1 gusting 2 22.8
2019-Sep-18 20:23 225 0 gusting 2 22.2
2019-Sep-18 20:18 266 0 gusting 2 22.2
2019-Sep-18 20:13 267 0 gusting 2 22.2
2019-Sep-18 20:08 139 0 gusting 2 21.7
2019-Sep-18 20:03 186 0 gusting 2 21.7
2019-Sep-18 19:58 156 1 gusting 2 21.7
2019-Sep-18 19:53 090 1 gusting 2 21.7
2019-Sep-18 19:48 093 0 gusting 1 21.7
2019-Sep-18 19:43 090 0 gusting 1 21.7
2019-Sep-18 19:38 090 0 gusting 2 21.7
2019-Sep-18 19:33 090 1 gusting 2 22.2
2019-Sep-18 19:28 090 0 gusting 0 22.8
2019-Sep-18 19:23 090 0 gusting 1 22.8
2019-Sep-18 19:18 232 0 gusting 1 22.8
2019-Sep-18 19:13 222 0 gusting 1 22.8
2019-Sep-18 19:08 009 1 gusting 2 22.8
2019-Sep-18 19:03 083 0 gusting 2 22.8
2019-Sep-18 18:58 009 1 gusting 2 22.2
2019-Sep-18 18:53 177 1 gusting 2 22.8
2019-Sep-18 18:48 090 1 gusting 2 23.3
2019-Sep-18 18:43 137 0 gusting 1 23.9
2019-Sep-18 18:38 094 0 gusting 0 24.4
2019-Sep-18 18:33 228 0 gusting 0 24.4
2019-Sep-18 18:28 221 0 gusting 5 24.4
2019-Sep-18 18:23 184 2 gusting 5 24.4
2019-Sep-18 18:18 225 1 gusting 5 24.4
2019-Sep-18 18:13 180 0 gusting 1 23.9
2019-Sep-18 18:08 045 0 gusting 2 23.9
2019-Sep-18 18:03 090 1 gusting 2 24.4
2019-Sep-18 17:58 132 1 gusting 2 25.0
2019-Sep-18 17:53 225 25.6
2019-Sep-18 17:48 182 0 gusting 1 25.6
2019-Sep-18 17:43 225 0 gusting 2 25.6
2019-Sep-18 17:38 225 0 gusting 1 25.6
2019-Sep-18 17:33 225 0 gusting 0 25.6
2019-Sep-18 17:28 227 0 gusting 1 25.6
2019-Sep-18 17:23 213 26.1
2019-Sep-18 17:18 221 0 gusting 2 26.1
2019-Sep-18 17:13 221 0 gusting 2 26.1
2019-Sep-18 17:08 216 1 gusting 2 26.7
2019-Sep-18 17:03 152 0 gusting 2 26.7
2019-Sep-18 16:58 184 0 gusting 5 26.7
2019-Sep-18 16:53 243 1 gusting 4 27.2
2019-Sep-18 16:48 221 0 gusting 2 27.8
2019-Sep-18 16:43 185 1 gusting 4 27.8
2019-Sep-18 16:38 217 1 gusting 5 28.3
2019-Sep-18 16:33 225 3 gusting 6 28.3
2019-Sep-18 16:28 225 2 gusting 5 28.3
2019-Sep-18 16:23 180 2 gusting 5 28.3
2019-Sep-18 16:18 221 2 gusting 5 28.3
2019-Sep-18 16:13 135 3 gusting 5 28.3
2019-Sep-18 16:08 225 3 gusting 6 28.9
2019-Sep-18 16:03 219 2 gusting 6 28.9
2019-Sep-18 15:58 209 4 gusting 6 28.9
2019-Sep-18 15:53 170 2 gusting 7 28.9
2019-Sep-18 15:48 219 4 gusting 6 28.9
2019-Sep-18 15:43 233 5 gusting 7 28.9
2019-Sep-18 15:38 187 5 gusting 8 28.9
2019-Sep-18 15:33 167 4 gusting 7 28.9
2019-Sep-18 15:28 225 5 gusting 11 28.9
2019-Sep-18 15:23 225 5 gusting 8 29.4
2019-Sep-18 15:18 135 3 gusting 7 29.4
2019-Sep-18 15:13 180 2 gusting 12 29.4
2019-Sep-18 15:08 222 3 gusting 10 29.4
2019-Sep-18 15:03 225 4 gusting 7 29.4
2019-Sep-18 14:58 185 4 gusting 6 29.4
2019-Sep-18 14:53 307 4 gusting 6 29.4
2019-Sep-18 14:48 225 5 gusting 12 29.4
2019-Sep-18 14:43 225 6 gusting 12 29.4
2019-Sep-18 14:38 312 4 gusting 8 30.0
2019-Sep-18 14:33 225 4 gusting 6 30.0
2019-Sep-18 14:28 138 3 gusting 7 30.0
2019-Sep-18 14:23 184 5 gusting 8 30.0
2019-Sep-18 14:18 269 4 gusting 6 30.0
2019-Sep-18 14:13 144 4 gusting 8 30.0
2019-Sep-18 14:08 125 4 gusting 8 30.0
2019-Sep-18 14:03 220 4 gusting 6 30.6
2019-Sep-18 13:58 208 3 gusting 11 30.6
2019-Sep-18 13:53 248 5 gusting 11 30.6
2019-Sep-18 13:48 225 4 gusting 11 30.6
2019-Sep-18 13:43 180 5 gusting 7 30.6
2019-Sep-18 13:38 225 5 gusting 11 31.1
2019-Sep-18 13:33 207 5 gusting 8 31.7
2019-Sep-18 13:28 225 4 gusting 8 31.7
2019-Sep-18 13:23 206 5 gusting 8 32.2
2019-Sep-18 13:18 222 2 gusting 6 32.2
2019-Sep-18 13:13 312 2 gusting 7 32.2
2019-Sep-18 13:08 176 4 gusting 8 32.2
2019-Sep-18 13:03 230 2 gusting 8 32.8
2019-Sep-18 12:58 232 4 gusting 6 32.8
2019-Sep-18 12:53 315 0 gusting 2 32.8
2019-Sep-18 12:48 036 1 gusting 6 32.8
2019-Sep-18 12:43 315 1 gusting 5 32.8
2019-Sep-18 12:38 228 1 gusting 5 32.8
2019-Sep-18 12:33 315 1 gusting 5 32.8
2019-Sep-18 12:28 261 1 gusting 6 32.8
2019-Sep-18 12:23 266 1 gusting 5 32.8
2019-Sep-18 12:18 309 1 gusting 6 32.8
2019-Sep-18 12:13 274 0 gusting 4 32.8
2019-Sep-18 12:08 334 1 gusting 5 32.2
2019-Sep-18 12:03 194 2 gusting 5 32.2
2019-Sep-18 11:58 320 2 gusting 6 31.7
2019-Sep-18 11:53 349 3 gusting 5 31.7
2019-Sep-18 11:48 279 2 gusting 5 31.7
2019-Sep-18 11:43 126 2 gusting 5 31.7
2019-Sep-18 11:38 045 1 gusting 4 31.7
2019-Sep-18 11:33 302 1 gusting 2 31.7
2019-Sep-18 11:28 121 1 gusting 6 31.7
2019-Sep-18 11:23 045 2 gusting 5 31.7
2019-Sep-18 11:18 356 2 gusting 5 31.7
2019-Sep-18 11:13 040 2 gusting 4 31.7
2019-Sep-18 11:08 228 1 gusting 4 31.7
2019-Sep-18 11:03 31.7
2019-Sep-18 10:58 268 0 gusting 4 31.7
2019-Sep-18 10:53 286 0 gusting 4 31.1
2019-Sep-18 10:48 293 1 gusting 4 31.1
2019-Sep-18 10:43 176 0 gusting 2 30.6
2019-Sep-18 10:38 082 1 gusting 4 31.1
2019-Sep-18 10:33 047 0 gusting 2 31.1
2019-Sep-18 10:28 307 0 gusting 4 31.1
2019-Sep-18 10:23 220 1 gusting 2 31.1
2019-Sep-18 10:18 308 1 gusting 2 30.6
2019-Sep-18 10:13 295 1 gusting 2 30.6
2019-Sep-18 10:08 182 0 gusting 4 30.0
2019-Sep-18 10:03 138 2 gusting 4 30.0
2019-Sep-18 09:58 265 0 gusting 2 30.0
2019-Sep-18 09:53 30.0
2019-Sep-18 09:48 315 0 gusting 4 30.0
2019-Sep-18 09:43 225 2 gusting 5 29.4
2019-Sep-18 09:38 213 1 gusting 2 29.4
2019-Sep-18 09:33 29.4
2019-Sep-18 09:28 180 1 gusting 4 29.4
2019-Sep-18 09:23 179 1 gusting 5 28.9
2019-Sep-18 09:18 135 1 gusting 5 28.9
2019-Sep-18 09:13 220 0 gusting 4 28.9
2019-Sep-18 09:08 239 3 gusting 5 28.9
2019-Sep-18 09:03 230 2 gusting 5 28.3